| time (UTC) | temp F | wind direction | speed MPH | gust MPH | rain 1hr in | rain 24hr in | rain mn in | humidity % | barometer mb |
| 20260831210856 | 72 | 316 | 0.0 | 1.0 | 0.00 | 0.00 | 0.00 | 10 | 1016.7 |
| 20260831210351 | 72 | 32 | 0.0 | 0.0 | 0.00 | 0.00 | 0.00 | 10 | 1016.8 |
| 20260831205847 | 72 | 283 | 0.0 | 1.0 | 0.00 | 0.00 | 0.00 | 10 | 1016.9 |
| 20260831205343 | 72 | 312 | 0.0 | 0.0 | 0.00 | 0.00 | 0.00 | 10 | 1017.0 |
| 20260831204837 | 72 | 295 | 0.0 | 0.0 | 0.00 | 0.00 | 0.00 | 10 | 1016.9 |
| 20260831204336 | 72 | 296 | 0.0 | 1.0 | 0.00 | 0.00 | 0.00 | 10 | 1016.9 |
| 20260831203836 | 72 | 302 | 0.0 | 0.0 | 0.00 | 0.00 | 0.00 | 10 | 1016.9 |
| 20260831203331 | 72 | 285 | 0.0 | 0.0 | 0.00 | 0.00 | 0.00 | 10 | 1017.2 |
| 20260831202829 | 71 | 293 | 0.0 | 0.0 | 0.00 | 0.00 | 0.00 | 10 | 1017.2 |
| 20260831202324 | 71 | 85 | 0.0 | 1.0 | 0.00 | 0.00 | 0.00 | 10 | 1016.9 |
| 20260831201824 | 71 | 4 | 0.0 | 1.0 | 0.00 | 0.00 | 0.00 | 10 | 1017.4 |
| 20260831201323 | 71 | 332 | 0.0 | 1.0 | 0.00 | 0.00 | 0.00 | 10 | 1017.0 |
| 20260831200819 | 71 | 295 | 0.0 | 0.0 | 0.00 | 0.00 | 0.00 | 10 | 1017.0 |
| 20260831200314 | 71 | 340 | 0.0 | 0.0 | 0.00 | 0.00 | 0.00 | 10 | 1017.3 |
| 20260831195809 | 71 | 298 | 0.0 | 0.0 | 0.00 | 0.00 | 0.00 | 10 | 1017.4 |
| 20260831195306 | 71 | 289 | 0.0 | 0.0 | 0.00 | 0.00 | 0.00 | 10 | 1017.5 |
| 20260831194801 | 70 | 246 | 0.0 | 1.0 | 0.00 | 0.00 | 0.00 | 10 | 1017.4 |
| 20260831194256 | 71 | 319 | 0.0 | 0.0 | 0.00 | 0.00 | 0.00 | 10 | 1017.4 |
| 20260831193754 | 70 | 324 | 0.0 | 1.0 | 0.00 | 0.00 | 0.00 | 10 | 1017.4 |
| 20260831193250 | 70 | 299 | 0.0 | 0.0 | 0.00 | 0.00 | 0.00 | 10 | 1017.3 |
| 20260831192745 | 71 | 266 | 0.0 | 1.0 | 0.00 | 0.00 | 0.00 | 10 | 1017.5 |
| 20260831192240 | 71 | 288 | 0.0 | 1.0 | 0.00 | 0.00 | 0.00 | 10 | 1017.5 |
| 20260831191736 | 69 | 297 | 0.0 | 2.0 | 0.00 | 0.00 | 0.00 | 10 | 1017.7 |
| 20260831191232 | 70 | 290 | 0.0 | 0.0 | 0.00 | 0.00 | 0.00 | 10 | 1017.6 |
| 20260831190727 | 70 | 353 | 0.0 | 1.0 | 0.00 | 0.00 | 0.00 | 10 | 1017.7 |
| 20260831190227 | 70 | 344 | 0.0 | 1.0 | 0.00 | 0.00 | 0.00 | 10 | 1017.7 |
| 20260831185721 | 70 | 291 | 0.0 | 0.0 | 0.00 | 0.00 | 0.00 | 10 | 1017.5 |
| 20260831185217 | 69 | 34 | 0.0 | 0.0 | 0.00 | 0.00 | 0.00 | 10 | 1017.7 |
| 20260831184716 | 69 | 4 | 0.0 | 1.0 | 0.00 | 0.00 | 0.00 | 10 | 1017.7 |
| 20260831184212 | 69 | 34 | 0.0 | 1.0 | 0.00 | 0.00 | 0.00 | 10 | 1017.8 |
| 20260831183711 | 69 | 51 | 0.0 | 0.0 | 0.00 | 0.00 | 0.00 | 10 | 1017.8 |
| 20260831183206 | 68 | 12 | 0.0 | 0.0 | 0.00 | 0.00 | 0.00 | 10 | 1017.9 |
| 20260831182705 | 68 | 344 | 0.0 | 1.0 | 0.00 | 0.00 | 0.00 | 10 | 1018.3 |
| 20260831182200 | 69 | 353 | 0.0 | 2.0 | 0.00 | 0.00 | 0.00 | 10 | 1017.8 |
| 20260831181655 | 69 | 31 | 0.0 | 0.0 | 0.00 | 0.00 | 0.00 | 10 | 1017.9 |
| 20260831181149 | 68 | 332 | 0.0 | 0.0 | 0.00 | 0.00 | 0.00 | 10 | 1018.1 |
| 20260831180645 | 68 | 44 | 0.0 | 0.0 | 0.00 | 0.00 | 0.00 | 10 | 1018.1 |
| 20260831180139 | 68 | 4 | 0.0 | 0.0 | 0.00 | 0.00 | 0.00 | 10 | 1017.8 |
| 20260831175634 | 68 | 321 | 0.0 | 0.0 | 0.00 | 0.00 | 0.00 | 10 | 1018.1 |
| 20260831175131 | 68 | 356 | 0.0 | 0.0 | 0.00 | 0.00 | 0.00 | 10 | 1018.4 |
| 20260831174625 | 67 | 321 | 0.0 | 2.0 | 0.00 | 0.00 | 0.00 | 10 | 1018.1 |
| 20260831174120 | 68 | 339 | 0.0 | 0.0 | 0.00 | 0.00 | 0.00 | 10 | 1018.0 |
| 20260831173618 | 67 | 338 | 0.0 | 0.0 | 0.00 | 0.00 | 0.00 | 10 | 1018.4 |
| 20260831173115 | 68 | 328 | 0.0 | 0.0 | 0.00 | 0.00 | 0.00 | 10 | 1018.3 |
| 20260831172615 | 67 | 319 | 0.0 | 2.0 | 0.00 | 0.00 | 0.00 | 10 | 1018.1 |
| 20260831172114 | 66 | 23 | 1.0 | 1.0 | 0.00 | 0.00 | 0.00 | 10 | 1018.3 |
| 20260831171610 | 66 | 9 | 0.0 | 0.0 | 0.00 | 0.00 | 0.00 | 10 | 1018.1 |
| 20260831171108 | 67 | 13 | 0.0 | 1.0 | 0.00 | 0.00 | 0.00 | 10 | 1018.6 |
| 20260831170603 | 66 | 348 | 0.0 | 3.0 | 0.00 | 0.00 | 0.00 | 10 | 1018.0 |
| 20260831170100 | 66 | 12 | 0.0 | 2.0 | 0.00 | 0.00 | 0.00 | 10 | 1018.4 |
| 20260831165555 | 66 | 1 | 0.0 | 0.0 | 0.00 | 0.00 | 0.00 | 10 | 1018.4 |
| 20260831165052 | 66 | 10 | 0.0 | 1.0 | 0.00 | 0.00 | 0.00 | 10 | 1018.5 |
| 20260831164547 | 66 | 336 | 0.0 | 2.0 | 0.00 | 0.00 | 0.00 | 10 | 1018.0 |
| 20260831164043 | 65 | 355 | 0.0 | 2.0 | 0.00 | 0.00 | 0.00 | 10 | 1018.4 |
| 20260831163537 | 65 | 348 | 0.0 | 3.0 | 0.00 | 0.00 | 0.00 | 10 | 1018.3 |
| 20260831163033 | 65 | 7 | 0.0 | 3.0 | 0.00 | 0.00 | 0.00 | 10 | 1018.1 |
| 20260831162532 | 65 | 355 | 0.0 | 0.0 | 0.00 | 0.00 | 0.00 | 10 | 1018.1 |
| 20260831162030 | 65 | 357 | 0.0 | 0.0 | 0.00 | 0.00 | 0.00 | 10 | 1018.3 |
| 20260831161527 | 65 | 326 | 1.0 | 2.0 | 0.00 | 0.00 | 0.00 | 10 | 1018.1 |
| 20260831161023 | 64 | 359 | 1.0 | 5.0 | 0.00 | 0.00 | 0.00 | 10 | 1018.1 |
| 20260831160522 | 64 | 356 | 0.0 | 1.0 | 0.00 | 0.00 | 0.00 | 10 | 1018.0 |
| 20260831160018 | 64 | 332 | 1.0 | 3.0 | 0.00 | 0.00 | 0.00 | 10 | 1017.9 |
| 20260831155512 | 64 | 356 | 0.0 | 2.0 | 0.00 | 0.00 | 0.00 | 10 | 1017.9 |
| 20260831155007 | 64 | 331 | 1.0 | 2.0 | 0.00 | 0.00 | 0.00 | 10 | 1017.7 |
| 20260831154503 | 63 | 355 | 1.0 | 5.0 | 0.00 | 0.00 | 0.00 | 10 | 1017.7 |
| 20260831154002 | 63 | 344 | 0.0 | 1.0 | 0.00 | 0.00 | 0.00 | 10 | 1017.8 |
| 20260831153457 | 63 | 2 | 0.0 | 2.0 | 0.00 | 0.00 | 0.00 | 10 | 1018.0 |
| 20260831152954 | 63 | 338 | 0.0 | 3.0 | 0.00 | 0.00 | 0.00 | 10 | 1017.9 |
| 20260831152448 | 63 | 27 | 0.0 | 2.0 | 0.00 | 0.00 | 0.00 | 10 | 1017.9 |
| 20260831151944 | 63 | 326 | 0.0 | 1.0 | 0.00 | 0.00 | 0.00 | 10 | 1017.7 |
| 20260831151443 | 63 | 349 | 1.0 | 2.0 | 0.00 | 0.00 | 0.00 | 10 | 1017.7 |
| 20260831150938 | 63 | 334 | 2.0 | 3.0 | 0.00 | 0.00 | 0.00 | 10 | 1017.6 |
| 20260831150434 | 63 | 335 | 0.0 | 1.0 | 0.00 | 0.00 | 0.00 | 10 | 1017.8 |
| 20260831145933 | 63 | 323 | 1.0 | 2.0 | 0.00 | 0.00 | 0.00 | 10 | 1017.6 |
| 20260831145430 | 63 | 322 | 0.0 | 0.0 | 0.00 | 0.00 | 0.00 | 10 | 1017.6 |
| 20260831144925 | 63 | 7 | 0.0 | 2.0 | 0.00 | 0.00 | 0.00 | 10 | 1017.4 |
| 20260831144421 | 62 | 323 | 3.0 | 3.0 | 0.00 | 0.00 | 0.00 | 10 | 1017.4 |
| 20260831143916 | 61 | 325 | 0.0 | 0.0 | 0.00 | 0.00 | 0.00 | 10 | 1017.4 |
| 20260831143411 | 61 | 316 | 0.0 | 1.0 | 0.00 | 0.00 | 0.00 | 10 | 1017.4 |
| 20260831142907 | 61 | 329 | 0.0 | 3.0 | 0.00 | 0.00 | 0.00 | 10 | 1017.2 |
| 20260831142402 | 60 | 310 | 1.0 | 3.0 | 0.00 | 0.00 | 0.00 | 10 | 1017.3 |
| 20260831141856 | 60 | 302 | 0.0 | 1.0 | 0.00 | 0.00 | 0.00 | 10 | 1017.3 |
| 20260831141350 | 58 | 326 | 0.0 | 0.0 | 0.00 | 0.00 | 0.00 | 10 | 1017.2 |
| 20260831140845 | 58 | 295 | 0.0 | 0.0 | 0.00 | 0.00 | 0.00 | 10 | 1016.8 |
| 20260831140340 | 57 | 258 | 0.0 | 0.0 | 0.00 | 0.00 | 0.00 | 10 | 1016.8 |
| 20260831135838 | 56 | 313 | 0.0 | 0.0 | 0.00 | 0.00 | 0.00 | 10 | 1016.9 |
| 20260831135333 | 55 | 286 | 0.0 | 0.0 | 0.00 | 0.00 | 0.00 | 10 | 1016.8 |
| 20260831134829 | 55 | 302 | 0.0 | 0.0 | 0.00 | 0.00 | 0.00 | 10 | 1017.0 |
| 20260831134326 | 55 | 308 | 0.0 | 0.0 | 0.00 | 0.00 | 0.00 | 10 | 1016.9 |
| 20260831133825 | 55 | 319 | 0.0 | 0.0 | 0.00 | 0.00 | 0.00 | 10 | 1016.8 |
| 20260831133324 | 54 | 272 | 0.0 | 0.0 | 0.00 | 0.00 | 0.00 | 10 | 1016.6 |
| 20260831132819 | 53 | 294 | 0.0 | 0.0 | 0.00 | 0.00 | 0.00 | 10 | 1016.6 |
| 20260831132314 | 53 | 259 | 0.0 | 0.0 | 0.00 | 0.00 | 0.00 | 10 | 1016.7 |
| 20260831131809 | 53 | 271 | 0.0 | 0.0 | 0.00 | 0.00 | 0.00 | 10 | 1016.5 |
| 20260831131305 | 53 | 296 | 0.0 | 0.0 | 0.00 | 0.00 | 0.00 | 10 | 1016.6 |
| 20260831130759 | 52 | 296 | 0.0 | 0.0 | 0.00 | 0.00 | 0.00 | 10 | 1016.5 |
| 20260831130255 | 52 | 287 | 0.0 | 0.0 | 0.00 | 0.00 | 0.00 | 10 | 1016.3 |
| 20260831125754 | 51 | 308 | 0.0 | 0.0 | 0.00 | 0.00 | 0.00 | 10 | 1016.2 |
| 20260831125249 | 51 | 293 | 0.0 | 0.0 | 0.00 | 0.00 | 0.00 | 10 | 1016.4 |
| 20260831124744 | 50 | 285 | 0.0 | 0.0 | 0.00 | 0.00 | 0.00 | 10 | 1016.3 |
| 20260831124240 | 50 | 284 | 0.0 | 0.0 | 0.00 | 0.00 | 0.00 | 10 | 1016.3 |
| 20260831123735 | 51 | 303 | 0.0 | 0.0 | 0.00 | 0.00 | 0.00 | 10 | 1016.1 |
| 20260831123234 | 51 | 270 | 0.0 | 0.0 | 0.00 | 0.00 | 0.00 | 10 | 1016.3 |
| 20260831122733 | 51 | 298 | 0.0 | 1.0 | 0.00 | 0.00 | 0.00 | 10 | 1016.1 |
| 20260831122230 | 51 | 294 | 0.0 | 0.0 | 0.00 | 0.00 | 0.00 | 10 | 1016.1 |
| 20260831121728 | 50 | 279 | 0.0 | 0.0 | 0.00 | 0.00 | 0.00 | 10 | 1016.3 |
| 20260831121225 | 49 | 281 | 0.0 | 0.0 | 0.00 | 0.00 | 0.00 | 10 | 1015.8 |
| 20260831120721 | 48 | 302 | 0.0 | 0.0 | 0.00 | 0.00 | 0.00 | 10 | 1016.1 |
| 20260831120215 | 49 | 296 | 0.0 | 0.0 | 0.00 | 0.00 | 0.00 | 10 | 1015.9 |
| 20260831115711 | 49 | 303 | 0.0 | 0.0 | 0.00 | 0.00 | 0.00 | 10 | 1015.9 |
| 20260831115207 | 49 | 288 | 0.0 | 0.0 | 0.00 | 0.00 | 0.00 | 10 | 1015.7 |
| 20260831114706 | 49 | 296 | 0.0 | 0.0 | 0.00 | 0.00 | 0.00 | 10 | 1015.9 |
| 20260831114205 | 49 | 297 | 0.0 | 1.0 | 0.00 | 0.00 | 0.00 | 10 | 1015.9 |
| 20260831113701 | 49 | 297 | 1.0 | 2.0 | 0.00 | 0.00 | 0.00 | 10 | 1015.9 |
| 20260831113155 | 49 | 286 | 0.0 | 0.0 | 0.00 | 0.00 | 0.00 | 10 | 1015.9 |
| 20260831112654 | 49 | 195 | 0.0 | 0.0 | 0.00 | 0.00 | 0.00 | 10 | 1015.7 |
| 20260831112150 | 49 | 290 | 0.0 | 0.0 | 0.00 | 0.00 | 0.00 | 10 | 1015.9 |
| 20260831111645 | 48 | 277 | 0.0 | 0.0 | 0.00 | 0.00 | 0.00 | 10 | 1015.8 |
| 20260831111141 | 49 | 283 | 0.0 | 1.0 | 0.00 | 0.00 | 0.00 | 10 | 1015.7 |
| 20260831110637 | 48 | 287 | 0.0 | 0.0 | 0.00 | 0.00 | 0.00 | 10 | 1015.9 |
| 20260831110132 | 48 | 258 | 0.0 | 1.0 | 0.00 | 0.00 | 0.00 | 10 | 1015.6 |
| 20260831105631 | 48 | 285 | 0.0 | 2.0 | 0.00 | 0.00 | 0.00 | 10 | 1015.9 |
| 20260831105126 | 48 | 295 | 1.0 | 2.0 | 0.00 | 0.00 | 0.00 | 10 | 1015.6 |
| 20260831104622 | 48 | 316 | 1.0 | 2.0 | 0.00 | 0.00 | 0.00 | 10 | 1015.3 |
| 20260831104118 | 49 | 325 | 1.0 | 2.0 | 0.00 | 0.00 | 0.00 | 10 | 1015.4 |
| 20260831103613 | 49 | 306 | 0.0 | 0.0 | 0.00 | 0.00 | 0.00 | 10 | 1015.2 |
| 20260831103108 | 49 | 304 | 0.0 | 0.0 | 0.00 | 0.00 | 0.00 | 10 | 1015.4 |
| 20260831102603 | 49 | 321 | 2.0 | 3.0 | 0.00 | 0.00 | 0.00 | 10 | 1015.2 |
| 20260831102058 | 49 | 306 | 2.0 | 3.0 | 0.00 | 0.00 | 0.00 | 10 | 1015.1 |
| 20260831101557 | 49 | 310 | 0.0 | 3.0 | 0.00 | 0.00 | 0.00 | 10 | 1015.1 |
| 20260831101054 | 49 | 312 | 0.0 | 0.0 | 0.00 | 0.00 | 0.00 | 10 | 1015.0 |
| 20260831100549 | 50 | 299 | 0.0 | 0.0 | 0.00 | 0.00 | 0.00 | 10 | 1015.0 |
| 20260831100045 | 50 | 290 | 0.0 | 1.0 | 0.00 | 0.00 | 0.00 | 10 | 1014.8 |
| 20260831095543 | 50 | 311 | 0.0 | 1.0 | 0.00 | 0.00 | 0.00 | 10 | 1014.8 |
| 20260831095038 | 50 | 282 | 0.0 | 1.0 | 0.00 | 0.00 | 0.00 | 10 | 1014.8 |
| 20260831094534 | 50 | 294 | 0.0 | 2.0 | 0.00 | 0.00 | 0.00 | 10 | 1015.0 |
| 20260831094030 | 50 | 298 | 0.0 | 2.0 | 0.00 | 0.00 | 0.00 | 10 | 1014.7 |
| 20260831093525 | 50 | 301 | 0.0 | 1.0 | 0.00 | 0.00 | 0.00 | 10 | 1015.2 |
| 20260831093021 | 50 | 278 | 0.0 | 1.0 | 0.00 | 0.00 | 0.00 | 10 | 1015.0 |
| 20260831092517 | 50 | 279 | 0.0 | 0.0 | 0.00 | 0.00 | 0.00 | 10 | 1015.1 |
| 20260831092013 | 50 | 292 | 0.0 | 2.0 | 0.00 | 0.00 | 0.00 | 10 | 1014.6 |
| 20260831091507 | 50 | 296 | 0.0 | 0.0 | 0.00 | 0.00 | 0.00 | 10 | 1014.8 |
| 20260831091003 | 50 | 291 | 0.0 | 2.0 | 0.00 | 0.00 | 0.00 | 10 | 1014.5 |
| 20260831090458 | 50 | 307 | 1.0 | 2.0 | 0.00 | 0.00 | 0.00 | 10 | 1014.6 |
| 20260831085954 | 50 | 275 | 0.0 | 5.0 | 0.00 | 0.00 | 0.00 | 10 | 1015.0 |
| 20260831085449 | 50 | 279 | 0.0 | 0.0 | 0.00 | 0.00 | 0.00 | 10 | 1014.4 |
| 20260831084949 | 50 | 274 | 0.0 | 1.0 | 0.00 | 0.00 | 0.00 | 10 | 1014.6 |
| 20260831084445 | 49 | 288 | 0.0 | 0.0 | 0.00 | 0.00 | 0.00 | 10 | 1014.7 |
| 20260831083942 | 49 | 302 | 0.0 | 0.0 | 0.00 | 0.00 | 0.00 | 10 | 1014.6 |
| 20260831083436 | 49 | 284 | 0.0 | 0.0 | 0.00 | 0.00 | 0.00 | 10 | 1014.6 |
| 20260831082935 | 49 | 281 | 0.0 | 1.0 | 0.00 | 0.00 | 0.00 | 10 | 1014.5 |
| 20260831082429 | 49 | 285 | 1.0 | 3.0 | 0.00 | 0.00 | 0.00 | 10 | 1014.4 |
| 20260831081925 | 49 | 251 | 0.0 | 2.0 | 0.00 | 0.00 | 0.00 | 10 | 1014.3 |
| 20260831081421 | 49 | 219 | 0.0 | 0.0 | 0.00 | 0.00 | 0.00 | 10 | 1014.3 |
| 20260831080917 | 49 | 230 | 0.0 | 0.0 | 0.00 | 0.00 | 0.00 | 10 | 1014.3 |
| 20260831080411 | 50 | 227 | 0.0 | 0.0 | 0.00 | 0.00 | 0.00 | 10 | 1014.4 |
| 20260831075907 | 50 | 206 | 0.0 | 0.0 | 0.00 | 0.00 | 0.00 | 10 | 1014.4 |
| 20260831075402 | 49 | 266 | 0.0 | 0.0 | 0.00 | 0.00 | 0.00 | 10 | 1014.2 |
| 20260831074857 | 49 | 295 | 0.0 | 0.0 | 0.00 | 0.00 | 0.00 | 10 | 1014.0 |
| 20260831074356 | 49 | 307 | 0.0 | 1.0 | 0.00 | 0.00 | 0.00 | 10 | 1013.9 |
| 20260831073851 | 50 | 322 | 0.0 | 1.0 | 0.00 | 0.00 | 0.00 | 10 | 1013.9 |
| 20260831073351 | 50 | 312 | 0.0 | 1.0 | 0.00 | 0.00 | 0.00 | 10 | 1013.9 |
| 20260831072846 | 50 | 315 | 0.0 | 2.0 | 0.00 | 0.00 | 0.00 | 10 | 1013.9 |
| 20260831072341 | 49 | 307 | 0.0 | 1.0 | 0.00 | 0.00 | 0.00 | 10 | 1014.0 |
| 20260831071838 | 50 | 282 | 0.0 | 1.0 | 0.00 | 0.00 | 0.00 | 10 | 1014.0 |
| 20260831071336 | 50 | 308 | 0.0 | 1.0 | 0.00 | 0.00 | 0.00 | 10 | 1014.2 |
| 20260831070832 | 50 | 291 | 0.0 | 1.0 | 0.00 | 0.00 | 0.00 | 10 | 1014.0 |
| 20260831070330 | 51 | 258 | 0.0 | 0.0 | 0.00 | 0.00 | 0.00 | 10 | 1013.6 |
| 20260831065830 | 51 | 305 | 0.0 | 2.0 | 0.00 | 0.00 | 0.00 | 10 | 1014.2 |
| 20260831065328 | 51 | 313 | 0.0 | 2.0 | 0.00 | 0.00 | 0.00 | 10 | 1014.1 |
| 20260831064823 | 51 | 307 | 0.0 | 1.0 | 0.00 | 0.00 | 0.00 | 10 | 1014.2 |
| 20260831064318 | 52 | 302 | 0.0 | 0.0 | 0.00 | 0.00 | 0.00 | 10 | 1014.1 |
| 20260831063814 | 51 | 306 | 0.0 | 1.0 | 0.00 | 0.00 | 0.00 | 10 | 1013.9 |
| 20260831063309 | 51 | 287 | 1.0 | 2.0 | 0.00 | 0.00 | 0.00 | 10 | 1014.0 |
| 20260831062809 | 51 | 306 | 0.0 | 0.0 | 0.00 | 0.00 | 0.00 | 10 | 1014.1 |
| 20260831062306 | 51 | 302 | 0.0 | 1.0 | 0.00 | 0.00 | 0.00 | 10 | 1014.3 |
| 20260831061802 | 51 | 307 | 0.0 | 1.0 | 0.00 | 0.00 | 0.00 | 10 | 1014.1 |
| 20260831061257 | 51 | 302 | 0.0 | 1.0 | 0.00 | 0.00 | 0.00 | 10 | 1014.4 |
| 20260831060754 | 51 | 315 | 0.0 | 0.0 | 0.00 | 0.00 | 0.00 | 10 | 1014.3 |
| 20260831060253 | 51 | 303 | 0.0 | 1.0 | 0.00 | 0.00 | 0.00 | 10 | 1014.1 |
| 20260831055753 | 52 | 291 | 0.0 | 2.0 | 0.00 | 0.01 | 0.01 | 10 | 1014.1 |
| 20260831055248 | 52 | 302 | 0.0 | 5.0 | 0.00 | 0.01 | 0.01 | 10 | 1014.1 |
| 20260831054743 | 52 | 307 | 0.0 | 2.0 | 0.00 | 0.01 | 0.01 | 10 | 1014.0 |
| 20260831054238 | 52 | 302 | 1.0 | 2.0 | 0.00 | 0.01 | 0.01 | 10 | 1014.0 |
| 20260831053736 | 53 | 291 | 1.0 | 3.0 | 0.00 | 0.01 | 0.01 | 10 | 1014.1 |
| 20260831053235 | 53 | 286 | 0.0 | 1.0 | 0.00 | 0.01 | 0.01 | 10 | 1013.9 |
| 20260831052729 | 53 | 302 | 0.0 | 0.0 | 0.00 | 0.01 | 0.01 | 10 | 1014.0 |
| 20260831052223 | 53 | 297 | 0.0 | 0.0 | 0.00 | 0.01 | 0.01 | 10 | 1013.7 |
| 20260831051721 | 53 | 289 | 0.0 | 1.0 | 0.00 | 0.01 | 0.01 | 10 | 1013.5 |
| 20260831051220 | 53 | 285 | 0.0 | 0.0 | 0.00 | 0.01 | 0.01 | 10 | 1014.0 |
| 20260831050715 | 53 | 286 | 1.0 | 1.0 | 0.00 | 0.01 | 0.01 | 10 | 1014.0 |
| 20260831050214 | 53 | 292 | 0.0 | 1.0 | 0.00 | 0.01 | 0.01 | 10 | 1013.6 |
| 20260831045709 | 54 | 259 | 1.0 | 2.0 | 0.00 | 0.01 | 0.01 | 10 | 1013.7 |
| 20260831045204 | 54 | 300 | 0.0 | 1.0 | 0.00 | 0.01 | 0.01 | 10 | 1013.7 |
| 20260831044658 | 54 | 286 | 2.0 | 2.0 | 0.00 | 0.01 | 0.01 | 10 | 1013.7 |
| 20260831044153 | 54 | 283 | 1.0 | 2.0 | 0.00 | 0.01 | 0.01 | 10 | 1013.4 |
| 20260831043649 | 54 | 297 | 1.0 | 3.0 | 0.00 | 0.01 | 0.01 | 10 | 1013.5 |
| 20260831043144 | 54 | 294 | 0.0 | 2.0 | 0.00 | 0.01 | 0.01 | 10 | 1013.6 |
| 20260831042643 | 54 | 302 | 0.0 | 3.0 | 0.00 | 0.01 | 0.01 | 10 | 1013.6 |
| 20260831042138 | 54 | 302 | 0.0 | 2.0 | 0.00 | 0.01 | 0.01 | 10 | 1013.6 |
| 20260831041632 | 54 | 282 | 0.0 | 2.0 | 0.00 | 0.01 | 0.01 | 10 | 1013.6 |
| 20260831041127 | 55 | 287 | 0.0 | 1.0 | 0.00 | 0.01 | 0.01 | 10 | 1013.7 |
| 20260831040622 | 55 | 296 | 0.0 | 14.0 | 0.00 | 0.01 | 0.01 | 10 | 1013.6 |
| 20260831040121 | 55 | 271 | 0.0 | 1.0 | 0.00 | 0.01 | 0.01 | 10 | 1013.5 |
| 20260831035620 | 55 | 229 | 0.0 | 1.0 | 0.00 | 0.01 | 0.01 | 10 | 1013.5 |
| 20260831035114 | 55 | 338 | 0.0 | 1.0 | 0.00 | 0.01 | 0.01 | 10 | 1013.6 |
| 20260831034614 | 55 | 276 | 0.0 | 0.0 | 0.00 | 0.01 | 0.01 | 10 | 1013.6 |
| 20260831034109 | 56 | 294 | 1.0 | 1.0 | 0.00 | 0.01 | 0.01 | 10 | 1013.6 |
| 20260831033605 | 56 | 291 | 0.0 | 0.0 | 0.00 | 0.01 | 0.01 | 10 | 1014.0 |
| 20260831033100 | 56 | 313 | 0.0 | 0.0 | 0.00 | 0.01 | 0.01 | 10 | 1013.9 |
| 20260831032559 | 56 | 300 | 0.0 | 0.0 | 0.00 | 0.01 | 0.01 | 10 | 1013.7 |
| 20260831032055 | 56 | 296 | 0.0 | 1.0 | 0.00 | 0.01 | 0.01 | 10 | 1013.6 |
| 20260831031554 | 56 | 304 | 0.0 | 0.0 | 0.00 | 0.01 | 0.01 | 10 | 1013.6 |
| 20260831031054 | 56 | 302 | 0.0 | 2.0 | 0.00 | 0.01 | 0.01 | 10 | 1013.6 |
| 20260831030553 | 56 | 298 | 1.0 | 2.0 | 0.00 | 0.01 | 0.01 | 10 | 1013.7 |
| 20260831030052 | 57 | 307 | 0.0 | 3.0 | 0.00 | 0.01 | 0.01 | 10 | 1013.5 |
| 20260831025551 | 57 | 303 | 0.0 | 2.0 | 0.00 | 0.01 | 0.01 | 10 | 1013.3 |
| 20260831025046 | 57 | 300 | 0.0 | 2.0 | 0.00 | 0.01 | 0.01 | 10 | 1013.3 |
| 20260831024542 | 57 | 296 | 0.0 | 2.0 | 0.00 | 0.01 | 0.01 | 10 | 1013.0 |
| 20260831024041 | 57 | 312 | 0.0 | 1.0 | 0.00 | 0.01 | 0.01 | 10 | 1013.2 |
| 20260831023539 | 57 | 303 | 0.0 | 1.0 | 0.00 | 0.01 | 0.01 | 10 | 1013.1 |
| 20260831023034 | 56 | 305 | 0.0 | 0.0 | 0.00 | 0.01 | 0.01 | 10 | 1013.0 |
| 20260831022533 | 57 | 307 | 0.0 | 0.0 | 0.00 | 0.01 | 0.01 | 10 | 1012.9 |
| 20260831022029 | 57 | 339 | 0.0 | 0.0 | 0.00 | 0.01 | 0.01 | 10 | 1012.7 |
| 20260831021527 | 57 | 302 | 0.0 | 1.0 | 0.00 | 0.01 | 0.01 | 10 | 1012.9 |
| 20260831021024 | 57 | 308 | 0.0 | 1.0 | 0.00 | 0.01 | 0.01 | 10 | 1012.9 |
| 20260831020519 | 57 | 311 | 0.0 | 0.0 | 0.00 | 0.01 | 0.01 | 10 | 1013.0 |
| 20260831020013 | 58 | 314 | 0.0 | 0.0 | 0.00 | 0.01 | 0.01 | 10 | 1013.0 |
| 20260831015509 | 58 | 313 | 0.0 | 0.0 | 0.00 | 0.01 | 0.01 | 10 | 1012.7 |
| 20260831015004 | 58 | 308 | 0.0 | 0.0 | 0.00 | 0.01 | 0.01 | 10 | 1012.6 |
| 20260831014458 | 58 | 304 | 0.0 | 1.0 | 0.00 | 0.01 | 0.01 | 10 | 1012.7 |
| 20260831013953 | 58 | 281 | 0.0 | 1.0 | 0.00 | 0.01 | 0.01 | 10 | 1012.6 |
| 20260831013449 | 57 | 302 | 0.0 | 1.0 | 0.00 | 0.01 | 0.01 | 10 | 1012.5 |
| 20260831012944 | 56 | 289 | 0.0 | 1.0 | 0.00 | 0.01 | 0.01 | 10 | 1012.6 |
| 20260831012439 | 57 | 288 | 0.0 | 0.0 | 0.00 | 0.01 | 0.01 | 10 | 1012.3 |
| 20260831011938 | 57 | 288 | 0.0 | 0.0 | 0.00 | 0.01 | 0.01 | 10 | 1012.7 |
| 20260831011433 | 57 | 279 | 0.0 | 1.0 | 0.00 | 0.01 | 0.01 | 10 | 1012.6 |
| 20260831010929 | 57 | 300 | 0.0 | 3.0 | 0.00 | 0.01 | 0.01 | 10 | 1012.7 |
| 20260831010424 | 57 | 308 | 1.0 | 3.0 | 0.00 | 0.01 | 0.01 | 10 | 1012.9 |
| 20260831005919 | 58 | 307 | 1.0 | 3.0 | 0.00 | 0.01 | 0.01 | 10 | 1013.2 |
| 20260831005415 | 59 | 312 | 1.0 | 3.0 | 0.00 | 0.01 | 0.01 | 10 | 1013.0 |
| 20260831004909 | 59 | 307 | 0.0 | 3.0 | 0.00 | 0.01 | 0.01 | 10 | 1012.9 |
| 20260831004406 | 59 | 312 | 0.0 | 1.0 | 0.00 | 0.01 | 0.01 | 10 | 1012.9 |
| 20260831003901 | 59 | 302 | 0.0 | 3.0 | 0.00 | 0.01 | 0.01 | 10 | 1013.1 |
| 20260831003357 | 59 | 307 | 1.0 | 5.0 | 0.00 | 0.01 | 0.01 | 10 | 1012.9 |
| 20260831002857 | 59 | 319 | 0.0 | 3.0 | 0.00 | 0.01 | 0.01 | 10 | 1013.2 |
| 20260831002356 | 59 | 309 | 2.0 | 6.0 | 0.00 | 0.01 | 0.01 | 10 | 1013.0 |
| 20260831001851 | 59 | 298 | 2.0 | 3.0 | 0.00 | 0.01 | 0.01 | 10 | 1013.1 |
| 20260831001351 | 59 | 320 | 1.0 | 5.0 | 0.00 | 0.01 | 0.01 | 10 | 1013.1 |
| 20260831000849 | 59 | 316 | 3.0 | 5.0 | 0.00 | 0.01 | 0.01 | 10 | 1013.0 |
| 20260831000344 | 59 | 316 | 2.0 | 5.0 | 0.00 | 0.01 | 0.01 | 10 | 1012.7 |
| 20260830235842 | 60 | 304 | 0.0 | 5.0 | 0.00 | 0.01 | 0.01 | 10 | 1012.7 |
| 20260830235337 | 60 | 307 | 1.0 | 5.0 | 0.00 | 0.01 | 0.01 | 10 | 1012.7 |
| 20260830234833 | 61 | 304 | 2.0 | 5.0 | 0.00 | 0.01 | 0.01 | 10 | 1012.7 |
| 20260830234328 | 62 | 309 | 4.0 | 8.0 | 0.00 | 0.01 | 0.01 | 10 | 1012.5 |
| 20260830233824 | 63 | 297 | 2.0 | 7.0 | 0.00 | 0.01 | 0.01 | 10 | 1012.5 |
| 20260830233319 | 62 | 312 | 1.0 | 5.0 | 0.00 | 0.01 | 0.01 | 10 | 1012.4 |
| 20260830232815 | 63 | 313 | 2.0 | 5.0 | 0.00 | 0.01 | 0.01 | 10 | 1012.4 |
| 20260830232310 | 63 | 285 | 0.0 | 3.0 | 0.00 | 0.01 | 0.01 | 10 | 1012.3 |
| 20260830231807 | 63 | 308 | 2.0 | 5.0 | 0.00 | 0.01 | 0.01 | 10 | 1012.2 |
| 20260830231306 | 64 | 290 | 2.0 | 5.0 | 0.00 | 0.01 | 0.01 | 10 | 1012.1 |
| 20260830230801 | 65 | 296 | 17.0 | 30.0 | 0.00 | 0.01 | 0.01 | 10 | 1012.3 |
| 20260830230256 | 65 | 272 | 0.0 | 3.0 | 0.00 | 0.01 | 0.01 | 10 | 1012.2 |
| 20260830225756 | 64 | 276 | 0.0 | 5.0 | 0.00 | 0.01 | 0.01 | 10 | 1012.2 |
| 20260830225251 | 63 | 296 | 24.0 | 27.0 | 0.00 | 0.01 | 0.01 | 10 | 1012.3 |
| 20260830224750 | 64 | 288 | 1.0 | 3.0 | 0.00 | 0.01 | 0.01 | 10 | 1012.3 |
| 20260830224245 | 64 | 280 | 20.0 | 29.0 | 0.00 | 0.01 | 0.01 | 10 | 1012.5 |
| 20260830223742 | 63 | 312 | 1.0 | 5.0 | 0.00 | 0.01 | 0.01 | 10 | 1012.3 |
| 20260830223238 | 63 | 300 | 1.0 | 5.0 | 0.00 | 0.01 | 0.01 | 10 | 1012.2 |
| 20260830222732 | 64 | 278 | 0.0 | 5.0 | 0.00 | 0.01 | 0.01 | 10 | 1012.5 |
| 20260830222227 | 63 | 295 | 18.0 | 27.0 | 0.00 | 0.01 | 0.01 | 10 | 1012.3 |
| 20260830221722 | 63 | 289 | 0.0 | 25.0 | 0.00 | 0.01 | 0.01 | 10 | 1012.4 |
| 20260830221219 | 63 | 284 | 14.0 | 26.0 | 0.00 | 0.01 | 0.01 | 10 | 1012.7 |
| 20260830220709 | 63 | 292 | 0.0 | 31.0 | 0.00 | 0.01 | 0.01 | 10 | 1012.6 |
| 20260830220208 | 63 | 264 | 2.0 | 5.0 | 0.00 | 0.01 | 0.01 | 10 | 1012.5 |
| 20260830215707 | 62 | 303 | 2.0 | 3.0 | 0.00 | 0.01 | 0.01 | 10 | 1013.0 |
| 20260830215202 | 62 | 230 | 18.0 | 30.0 | 0.00 | 0.01 | 0.01 | 10 | 1012.7 |
| 20260830214657 | 62 | 312 | 0.0 | 24.0 | 0.00 | 0.01 | 0.01 | 10 | 1013.1 |
| 20260830214151 | 62 | 298 | 1.0 | 14.0 | 0.00 | 0.01 | 0.01 | 10 | 1013.2 |
| 20260830213650 | 62 | 287 | 16.0 | 30.0 | 0.00 | 0.01 | 0.01 | 10 | 1013.2 |
| 20260830213146 | 62 | 285 | 1.0 | 3.0 | 0.00 | 0.01 | 0.01 | 10 | 1013.2 |
| 20260830212642 | 62 | 266 | 0.0 | 30.0 | 0.00 | 0.01 | 0.01 | 10 | 1013.0 |
| 20260830212136 | 62 | 293 | 3.0 | 5.0 | 0.00 | 0.01 | 0.01 | 10 | 1013.1 |
| 20260830211632 | 63 | 293 | 1.0 | 5.0 | 0.00 | 0.01 | 0.01 | 10 | 1013.4 |
| 20260830211131 | 62 | 291 | 2.0 | 20.0 | 0.00 | 0.01 | 0.01 | 10 | 1013.1 |